Weather History for Mount Carmel, IL

Change the Weather History Date:

Friday, December 21, 2012

  Actual Average (KLWV) Record (KLWV)
Temperature  
Mean Temperature 32 °F 33 °F  
Max Temperature 35 °F 41 °F 59 °F (2011)
Min Temperature 28 °F 25 °F 1 °F (2000)
Degree Days  
Heating Degree Days 34 32  
Month to date heating degree days 611  
Since 1 July heating degree days 1469  
Cooling Degree Days 0 0  
Month to date cooling degree days 0  
Year to date cooling degree days 1387  
Moisture  
Dew Point 23 °F    
Average Humidity 69    
Maximum Humidity 87    
Minimum Humidity 52    
Precipitation  
Precipitation 0.00 in 0.12 in 3.23 in (2013)
Month to date precipitation 2.21  
Year to date precipitation 42.70  
Sea Level Pressure  
Sea Level Pressure 30.06 in    
Wind  
Wind Speed 23 mph (WNW)    
Max Wind Speed 32 mph    
Max Gust Speed 40 mph    
Visibility 10 miles    
Events Snow    
T = Trace of Precipitation, MM = Missing Value Source: NWS Daily Summary

Daily Weather History Graph

Daily Weather History Graph

Search for Another Location

Airport:

Trip Planner

Search our weather history database for the weather conditions in past years. The results will help you decide how hot, cold, wet, or windy it might be!

Date:

Astronomy

Dec. 21, 2012 Rise Set
Actual Time 7:05 AM CST 4:33 PM CST
Civil Twilight 6:35 AM CST 5:03 PM CST
Nautical Twilight 6:02 AM CST 5:36 PM CST
Astronomical Twilight 5:29 AM CST 6:08 PM CST
Moon 12:17 PM CST (12/21) 12:54 AM CST (12/21)
Length of Visible Light 10h 27m
Length of Day
9h 28m
Waxing Gibbous, 65% of the Moon is Illuminated
Dec 21
Waxing Gibbous
Dec 28
Full
Jan 4
Last Quarter
Jan 11
New
Jan 18
First Quarter

Hourly Weather History & Observations

Time (CST) Temp. Windchill Dew Point Humidity Pressure Visibility Wind Dir Wind Speed Gust Speed Precip Events Conditions
12:15 AM 32.0 °F 17.9 °F 28.4 °F 87% 29.80 in 5.0 mi West 28.8 mph 33.4 mph N/A Snow Light Snow
12:35 AM 32.0 °F 20.1 °F 28.4 °F 87% 29.81 in 10.0 mi West 19.6 mph 33.4 mph N/A Snow Light Snow
12:55 AM 32.0 °F 17.9 °F 26.6 °F 80% 29.81 in 7.0 mi West 28.8 mph 39.1 mph N/A Snow Light Snow
1:15 AM 32.0 °F 17.2 °F 24.8 °F 75% 29.82 in 10.0 mi WNW 32.2 mph 40.3 mph N/A   Overcast
1:35 AM 32.0 °F 18.4 °F 26.6 °F 80% 29.83 in 10.0 mi WNW 26.5 mph 34.5 mph N/A   Overcast
1:55 AM 32.0 °F 18.1 °F 24.8 °F 75% 29.84 in 10.0 mi West 27.6 mph 38.0 mph N/A   Overcast
2:15 AM 32.0 °F 17.9 °F 24.8 °F 75% 29.85 in 10.0 mi West 28.8 mph 34.5 mph N/A   Overcast
2:35 AM 32.0 °F 17.9 °F 24.8 °F 75% 29.85 in 10.0 mi WNW 28.8 mph 35.7 mph N/A   Overcast
2:55 AM 32.0 °F 17.9 °F 24.8 °F 75% 29.86 in 7.0 mi West 28.8 mph 39.1 mph N/A   Overcast
3:15 AM 32.0 °F 18.1 °F 24.8 °F 75% 29.87 in 10.0 mi West 27.6 mph 35.7 mph N/A   Overcast
3:35 AM 32.0 °F 18.6 °F 24.8 °F 75% 29.87 in 10.0 mi WNW 25.3 mph 38.0 mph N/A   Overcast
3:55 AM 30.2 °F 15.4 °F 23.0 °F 75% 29.88 in 10.0 mi WNW 28.8 mph 40.3 mph N/A   Overcast
4:15 AM 30.2 °F 16.2 °F 23.0 °F 75% 29.88 in 10.0 mi West 25.3 mph 34.5 mph N/A   Overcast
4:35 AM 30.2 °F 16.5 °F 23.0 °F 75% 29.90 in 10.0 mi WNW 24.2 mph 36.8 mph N/A   Overcast
4:55 AM 30.2 °F 15.9 °F 23.0 °F 75% 29.91 in 10.0 mi WNW 26.5 mph 32.2 mph N/A   Mostly Cloudy
5:35 AM 30.2 °F 16.8 °F 23.0 °F 75% 29.92 in 10.0 mi WNW 23.0 mph 34.5 mph N/A   Mostly Cloudy
5:55 AM 30.2 °F 16.8 °F 23.0 °F 75% 29.93 in 10.0 mi WNW 23.0 mph 27.6 mph N/A   Scattered Clouds
6:15 AM 30.2 °F 18.1 °F 23.0 °F 75% 29.94 in 10.0 mi WNW 18.4 mph 24.2 mph N/A   Scattered Clouds
6:35 AM 28.4 °F 16.6 °F 23.0 °F 80% 29.95 in 10.0 mi WNW 16.1 mph 27.6 mph N/A   Clear
6:55 AM 28.4 °F 14.7 °F 23.0 °F 80% 29.96 in 10.0 mi WNW 21.9 mph 29.9 mph N/A   Scattered Clouds
7:15 AM 28.4 °F 15.4 °F 21.2 °F 74% 29.96 in 10.0 mi WNW 19.6 mph 25.3 mph N/A   Clear
7:35 AM 28.4 °F 14.4 °F 21.2 °F 74% 29.97 in 10.0 mi WNW 23.0 mph 28.8 mph N/A   Clear
7:55 AM 28.4 °F 15.4 °F 23.0 °F 80% 29.98 in 10.0 mi WNW 19.6 mph 24.2 mph N/A   Clear
8:15 AM 30.2 °F 16.8 °F 23.0 °F 75% 30.00 in 10.0 mi West 23.0 mph 28.8 mph N/A   Clear
8:35 AM 30.2 °F 17.4 °F 23.0 °F 75% 30.01 in 10.0 mi WNW 20.7 mph 31.1 mph N/A   Clear
8:55 AM 30.2 °F 17.4 °F 23.0 °F 75% 30.01 in 10.0 mi WNW 20.7 mph 29.9 mph N/A   Clear
9:15 AM 32.0 °F 19.2 °F 23.0 °F 69% 30.03 in 10.0 mi WNW 23.0 mph 27.6 mph N/A   Clear
9:35 AM 32.0 °F 19.5 °F 23.0 °F 69% 30.04 in 10.0 mi NW 21.9 mph 34.5 mph N/A   Clear
9:55 AM 32.0 °F 20.5 °F 24.8 °F 75% 30.05 in 10.0 mi NW 18.4 mph 27.6 mph N/A   Clear
10:15 AM 32.0 °F 19.2 °F 24.8 °F 75% 30.05 in 10.0 mi WNW 23.0 mph 29.9 mph N/A   Clear
10:35 AM 32.0 °F 20.5 °F 26.6 °F 80% 30.06 in 10.0 mi WNW 18.4 mph 24.2 mph N/A   Clear
10:55 AM 33.8 °F 23.2 °F 26.6 °F 75% 30.05 in 10.0 mi WNW 17.3 mph 27.6 mph N/A   Clear
11:15 AM 33.8 °F 20.8 °F 26.6 °F 75% 30.06 in 10.0 mi WNW 26.5 mph 33.4 mph N/A   Clear
11:35 AM 33.8 °F 22.5 °F 26.6 °F 75% 30.06 in 10.0 mi WNW 19.6 mph 26.5 mph N/A   Clear
11:55 AM 33.8 °F 22.5 °F 26.6 °F 75% 30.06 in 10.0 mi WNW 19.6 mph 34.5 mph N/A   Clear
12:15 PM 33.8 °F 21.3 °F 26.6 °F 75% 30.06 in 10.0 mi WNW 24.2 mph 33.4 mph N/A   Clear
12:35 PM 33.8 °F 20.8 °F 26.6 °F 75% 30.07 in 10.0 mi WNW 26.5 mph 35.7 mph N/A   Clear
12:55 PM 33.8 °F 21.3 °F 24.8 °F 70% 30.07 in 10.0 mi WNW 24.2 mph 32.2 mph N/A   Clear
1:15 PM 35.6 °F 24.8 °F 24.8 °F 65% 30.08 in 10.0 mi WNW 19.6 mph 31.1 mph N/A   Clear
1:35 PM 35.6 °F 24.2 °F 23.0 °F 60% 30.08 in 10.0 mi WNW 21.9 mph 26.5 mph N/A   Clear
1:55 PM 35.6 °F 23.4 °F 21.2 °F 56% 30.07 in 10.0 mi NW 25.3 mph 31.1 mph N/A   Clear
2:15 PM 35.6 °F 24.2 °F 21.2 °F 56% 30.08 in 10.0 mi WNW 21.9 mph 34.5 mph N/A   Clear
2:35 PM 35.6 °F 24.2 °F 21.2 °F 56% 30.09 in 10.0 mi WNW 21.9 mph 31.1 mph N/A   Clear
2:55 PM 35.6 °F 24.5 °F 21.2 °F 56% 30.09 in 10.0 mi WNW 20.7 mph 29.9 mph N/A   Clear
3:15 PM 35.6 °F 23.2 °F 19.4 °F 52% 30.10 in 10.0 mi WNW 26.5 mph 31.1 mph N/A   Clear
3:35 PM 35.6 °F 26.6 °F 19.4 °F 52% 30.12 in 10.0 mi WNW 13.8 mph 27.6 mph N/A   Clear
3:55 PM 35.6 °F 24.5 °F 19.4 °F 52% 30.12 in 10.0 mi NW 20.7 mph 27.6 mph N/A   Clear
4:15 PM 35.6 °F 24.2 °F 19.4 °F 52% 30.13 in 10.0 mi WNW 21.9 mph 28.8 mph N/A   Clear
4:35 PM 33.8 °F 23.2 °F 21.2 °F 60% 30.14 in 10.0 mi WNW 17.3 mph 23.0 mph N/A   Clear
4:55 PM 33.8 °F 22.8 °F 21.2 °F 60% 30.15 in 10.0 mi WNW 18.4 mph - N/A   Clear
5:15 PM 33.8 °F 22.8 °F 21.2 °F 60% 30.17 in 10.0 mi WNW 18.4 mph 21.9 mph N/A   Clear
5:35 PM 32.0 °F 20.8 °F 21.2 °F 64% 30.17 in 10.0 mi WNW 17.3 mph - N/A   Clear
5:55 PM 32.0 °F 20.5 °F 21.2 °F 64% 30.18 in 10.0 mi WNW 18.4 mph 23.0 mph N/A   Clear
6:15 PM 32.0 °F 20.5 °F 21.2 °F 64% 30.18 in 10.0 mi WNW 18.4 mph - N/A   Clear
6:35 PM 32.0 °F 21.6 °F 21.2 °F 64% 30.19 in 10.0 mi WNW 15.0 mph 24.2 mph N/A   Clear
6:55 PM 32.0 °F 21.2 °F 21.2 °F 64% 30.20 in 10.0 mi WNW 16.1 mph 20.7 mph N/A   Clear
7:15 PM 32.0 °F 22.1 °F 21.2 °F 64% 30.20 in 10.0 mi WNW 13.8 mph 20.7 mph N/A   Clear
7:35 PM 32.0 °F 22.1 °F 19.4 °F 60% 30.21 in 10.0 mi WNW 13.8 mph 20.7 mph N/A   Clear
7:55 PM 32.0 °F 22.1 °F 19.4 °F 60% 30.22 in 10.0 mi WNW 13.8 mph - N/A   Clear
8:15 PM 30.2 °F 19.3 °F 19.4 °F 64% 30.22 in 10.0 mi NW 15.0 mph - N/A   Clear
8:35 PM 30.2 °F 20.2 °F 19.4 °F 64% 30.23 in 10.0 mi NW 12.7 mph 19.6 mph N/A   Clear
8:55 PM 30.2 °F 19.8 °F 19.4 °F 64% 30.23 in 10.0 mi NW 13.8 mph - N/A   Clear
9:15 PM 30.2 °F 21.3 °F 19.4 °F 64% 30.24 in 10.0 mi NW 10.4 mph - N/A   Clear
9:35 PM 30.2 °F 20.8 °F 19.4 °F 64% 30.25 in 10.0 mi NW 11.5 mph - N/A   Clear
9:55 PM 30.2 °F 21.9 °F 19.4 °F 64% 30.25 in 10.0 mi NW 9.2 mph - N/A   Clear
10:15 PM 30.2 °F 21.3 °F 19.4 °F 64% 30.25 in 10.0 mi NW 10.4 mph - N/A   Clear
10:35 PM 28.4 °F 19.7 °F 19.4 °F 69% 30.25 in 10.0 mi NW 9.2 mph - N/A   Clear
10:55 PM 28.4 °F 19.7 °F 19.4 °F 69% 30.26 in 10.0 mi NW 9.2 mph - N/A   Clear
11:15 PM 28.4 °F 21.2 °F 19.4 °F 69% 30.26 in 10.0 mi NW 6.9 mph - N/A   Clear
11:35 PM 28.4 °F 23.3 °F 19.4 °F 69% 30.26 in 10.0 mi NW 4.6 mph - N/A   Clear
11:55 PM 28.4 °F 20.4 °F 19.4 °F 69% 30.26 in 10.0 mi NW 8.1 mph - N/A   Clear